TimeEDT,TemperatureF,Dew PointF,Humidity,Sea Level PressureIn,VisibilityMPH,Wind Direction,Wind SpeedMPH,Gust SpeedMPH,PrecipitationIn,Events,Conditions,WindDirDegrees,DateUTC
12:53 AM,72.0,69.1,91,30.08,-9999.0,WSW,3.5,-,N/A,,Clear,250,2013-06-25 04:53:00
1:53 AM,71.1,69.1,93,30.09,-9999.0,South,5.8,-,N/A,,Clear,190,2013-06-25 05:53:00
2:53 AM,71.1,68.0,90,30.07,-9999.0,SSW,4.6,-,N/A,,Clear,200,2013-06-25 06:53:00
3:53 AM,70.0,66.9,90,30.07,-9999.0,SW,4.6,-,N/A,,Clear,230,2013-06-25 07:53:00
4:53 AM,69.1,66.9,93,30.06,-9999.0,SSW,3.5,-,N/A,,Clear,200,2013-06-25 08:53:00
5:53 AM,69.1,66.9,93,30.08,-9999.0,SSW,4.6,-,N/A,,Clear,210,2013-06-25 09:53:00
6:53 AM,70.0,68.0,93,30.07,-9999.0,SW,3.5,-,N/A,,Clear,220,2013-06-25 10:53:00
7:53 AM,73.0,70.0,90,30.08,-9999.0,WSW,4.6,-,N/A,,Clear,240,2013-06-25 11:53:00
8:53 AM,78.1,71.1,79,30.08,-9999.0,West,8.1,-,N/A,,Clear,260,2013-06-25 12:53:00
9:53 AM,80.1,72.0,76,30.08,-9999.0,North,-9999.0,-,N/A,,Clear,0,2013-06-25 13:53:00
10:53 AM,82.9,72.0,69,30.09,-9999.0,North,-9999.0,-,N/A,,Clear,0,2013-06-25 14:53:00
11:53 AM,84.9,73.0,67,30.08,10.0,WSW,6.9,-,N/A,,Clear,250,2013-06-25 15:53:00
12:53 PM,87.1,71.1,59,30.07,10.0,West,9.2,-,N/A,,Clear,270,2013-06-25 16:53:00
1:53 PM,89.1,71.1,55,30.05,10.0,Variable,5.8,-,N/A,,Partly Cloudy,0,2013-06-25 17:53:00
2:53 PM,88.0,66.9,49,30.02,10.0,WSW,8.1,-,N/A,,Clear,240,2013-06-25 18:53:00
3:53 PM,86.0,68.0,55,30.01,10.0,WSW,4.6,-,N/A,,Clear,240,2013-06-25 19:53:00
4:53 PM,89.1,66.9,48,30.00,10.0,WSW,5.8,-,N/A,,Clear,240,2013-06-25 20:53:00
5:53 PM,89.1,66.9,48,29.99,10.0,WSW,5.8,-,N/A,,Clear,250,2013-06-25 21:53:00
6:53 PM,88.0,70.0,55,29.98,10.0,SSW,4.6,-,N/A,,Clear,200,2013-06-25 22:53:00
7:53 PM,81.0,66.9,62,29.98,10.0,SSW,6.9,-,N/A,,Clear,200,2013-06-25 23:53:00
8:53 PM,78.1,68.0,71,29.98,10.0,Calm,Calm,-,N/A,,Clear,0,2013-06-26 00:53:00
9:53 PM,75.0,68.0,79,30.01,10.0,SW,5.8,-,N/A,,Clear,230,2013-06-26 01:53:00
10:53 PM,75.9,68.0,76,30.01,10.0,West,3.5,-,N/A,,Clear,280,2013-06-26 02:53:00
11:53 PM,73.9,68.0,82,30.00,10.0,South,3.5,-,N/A,,Clear,190,2013-06-26 03:53:00